Regional Weather Roundup
Issued by NWS

Home | Current Version | Previous Version | Graphics & Text | Print | Product List | Glossary On
Versions: 1 2 3 4 5 6 7 8 9 10 11 12 13 14 15 16 17 18 19 20 21 22 23 24 25 26 27 28 29 30 31 32 33 34 35 36 37 38 39 40 41 42 43 44 45 46 47 48 49 50
672
ASUS45 KTFX 232310
RWRMT
MONTANA REGIONAL WEATHER ROUNDUP
NATIONAL WEATHER SERVICE GREAT FALLS MT
500 PM MDT TUE MAY 23 2017

NOTE: "FAIR" INDICATES FEW OR NO CLOUDS BELOW 12000 FEET WITH NO
SIGNIFICANT WEATHER AND/OR OBSTRUCTIONS TO VISIBILITY.

MTZ001>007-043-240000-
WEST OF THE DIVIDE

CITY           SKY/WX    TMP DP  RH WIND       PRES   REMARKS
KALISPELL      SUNNY     79  49  34 S20G26    29.81F
MISSOULA       SUNNY     81  43  26 CALM      29.89F
BUTTE          SUNNY     77  35  21 NW14      30.01F
MULLAN PASS    SUNNY     66  36  32 W8        30.05F
ANACONDA         N/A     79  30  17 W15G22    29.96F
DEER LODGE       N/A     75  43  31 NW7       29.98F
EUREKA           N/A     84  39  20 S14       29.78F
HAMILTON         N/A     81  36  19 W6        29.92F
PLAINS           N/A     85  44  23 S16       29.85
RONAN            N/A     81  45  28 SE7       29.93F
$$

MTZ008-052>055-240000-
SOUTHWEST MONTANA

CITY           SKY/WX    TMP DP  RH WIND       PRES   REMARKS
BOZEMAN        SUNNY     75  42  30 MISG      29.98F
DILLON         SUNNY     77  35  21 SW10      30.00F
W YELLOWSTONE  MOSUNNY   68  37  32 SW14G23   30.13F
ENNIS          SUNNY     73  37  27 VRB5      30.08F
$$

MTZ009-010-012-014-046-048-049-054-240000-
EAST SLOPES AND CENTRAL MONTANA

CITY           SKY/WX    TMP DP  RH WIND       PRES   REMARKS
CUT BANK       SUNNY     80  40  23 W22G29    29.82F
GREAT FALLS    SUNNY     79  43  27 S15       29.85F
HELENA         SUNNY     81  45  28 E12       29.89F
CHOTEAU          N/A     81  43  26 SW12      29.86F
CONRAD           N/A     82  51  34 SW5       29.87F
$$

MTZ011-013-016-021-045-047-050-051-240000-
NORTH CENTRAL MONTANA

CITY           SKY/WX    TMP DP  RH WIND       PRES   REMARKS
HAVRE          MOSUNNY   79  40  24 S12       29.81F
LEWISTOWN      CLOUDY    73  41  31 CALM      29.93F
N BAR RANCH      N/A     70  43  37 S18G26    29.99F
CHINOOK          N/A     81  41  24 S9        29.81F
$$

MTZ017>020-022>027-061-062-240000-
NORTHEAST MONTANA

CITY           SKY/WX    TMP DP  RH WIND       PRES   REMARKS
GLASGOW        PTSUNNY   71  30  21 S14       29.93F
JORDAN           N/A     73  26  17 SE13G20   29.95F
SIDNEY         SUNNY     71  32  23 S8        29.99F
WOLF POINT     PTSUNNY   76  30  18 SW12G18   29.94F
MALTA          SUNNY     75  32  20 S14G20    29.87F
PLENTYWOOD       N/A     72  30  21 SE8       29.96F
POPLAR           N/A     73  28  19 S5        29.95F
SCOBEY           N/A     72  30  21 S10       29.95
$$

MTZ028>42-056>058-240000-
SOUTHCENTRAL AND SOUTHEAST MONTANA

CITY           SKY/WX    TMP DP  RH WIND       PRES   REMARKS
BAKER          SUNNY     67  30  25 VRB3      30.04F
BILLINGS       PTSUNNY   72  37  28 N5        29.98F
LIVINGSTON     SUNNY     77  38  24 W16       29.97F
MILES CITY     CLOUDY    69  30  23 SE10      30.00F
BIG TIMBER     SUNNY     75  39  27 W13       30.00F
EKALAKA          N/A     64  31  29 N1        30.03
FORSYTH          N/A     72  34  25 SE8G16    29.99F
LAUREL           N/A     71  39  31 E2        29.98F
ROUNDUP          N/A     72  38  29 SE10      29.88F
$$

REGIONAL REPORTS...DAKOTAS

CITY           SKY/WX    TMP DP  RH WIND       PRES   REMARKS
WILLISTON      SUNNY     71  29  21 SE9       30.00F
MINOT          SUNNY     69  31  24 NE13      30.00F
DICKINSON      SUNNY     61  31  32 E6        30.02F
BEACH            N/A     66  28  24 S5        30.06S
TIOGA            N/A     66  30  26 CALM      30.02F
WATFORD CITY     N/A     66  32  28 VRB5      30.01F
BISMARCK       PTSUNNY   67  35  30 NE14G20   30.01F
GRAND FORKS    PTSUNNY   62  42  47 NE12      29.96F
FARGO          PTSUNNY   58  44  60 NE21      29.94S
BUFFALO SD       N/A     65  33  30 NE10      29.98F
RAPID CITY     MOSUNNY   64  34  32 N17G28    30.04F
$$

REGIONAL REPORTS...WYOMING/IDAHO/WASHINGTON

CITY           SKY/WX    TMP DP  RH WIND       PRES   REMARKS
GILLETTE       SUNNY     63  34  33 NE6       30.08F
SHERIDAN       CLOUDY    66  35  31 E6        30.06F
BUFFALO WY     CLOUDY    62  33  33 E8        30.10F
CODY           SUNNY     68  37  32 E12       30.06F
YELLOWSTONE LA   N/A     62  31  31 VRB7      30.21F
IDAHO FALLS    SUNNY     76  38  25 SW10      30.08F
SALMON         SUNNY     79  43  27 N3        29.93F
BOISE          SUNNY     86  40  19 W9        29.98F
SPOKANE        MOSUNNY   80  45  28 SW10G21   29.87F
$$

REGIONAL REPORTS...ALBERTA

CITY           SKY/WX    TMP DP  RH WIND       PRES   REMARKS
EDMONTON       MOSUNNY   82  39  21 W2        29.53F
CALGARY        PTSUNNY   82  36  18 SW9G17    29.65F
LETHBRIDGE     MOSUNNY   82  41  23 SW17G28   29.72F
MEDICINE HAT   PTSUNNY   82  43  24 S15G23    29.68F
WATERTON GATE    N/A     77  37  24 SW22G36     N/A
MILK RIVER       N/A     84  43  23 W12G17      N/A
$$

REGIONAL REPORTS...SASKATCHEWAN

CITY           SKY/WX    TMP DP  RH WIND       PRES   REMARKS
SWIFT CURRENT  SUNNY     75  30  19 S23G29    29.81F
REGINA         PTSUNNY   75  30  19 SW15G25   29.88F
SASKATOON      PTSUNNY   77  32  19 S20G26    29.78F
CYPRESS HILLS    N/A     72  37  28 S13G24      N/A
VAL MARIE        N/A     72  25  17 S18G26      N/A
ROCKGLEN         N/A     68  28  22 S20G26      N/A
$$




USA.gov is the U.S. government's official web portal to all federal, state and local government web resources and services.